Weather History for PAWI - April, 2013

Change the Weather History Date:

Saturday, April 27, 2013

  Actual Average (PABR) Record (PABR)
Temperature  
Mean Temperature 11 °F 10 °F  
Max Temperature 21 °F 16 °F 37 °F (1967)
Min Temperature 3 °F - -22 °F (1949)
Degree Days  
Heating Degree Days 54 55  
Month to date heating degree days 1733  
Since 1 July heating degree days 16985  
Cooling Degree Days 0    
Month to date cooling degree days  
Year to date cooling degree days  
Moisture  
Dew Point 8 °F    
Average Humidity 82    
Maximum Humidity 89    
Minimum Humidity 77    
Precipitation  
Precipitation 0.00 in 0.00 in 0.07 in (1973)
Month to date precipitation 0.14  
Year to date precipitation 0.50  
Snow  
Snow 0.00 in 0.10 in 1.20 in (1973)
Month to date snowfall 2.9  
Since 1 July snowfall 34.0  
Snow Depth -    
Sea Level Pressure  
Sea Level Pressure 30.23 in    
Wind  
Wind Speed 10 mph (West)    
Max Wind Speed 20 mph    
Max Gust Speed 25 mph    
Visibility 5 miles    
Events Snow    
T = Trace of Precipitation, MM = Missing Value Source: NWS Daily Summary

Daily Weather History Graph

Daily Weather History Graph

Search for Another Location

Airport or City:

Trip Planner

Search our weather history database for the weather conditions in past years. The results will help you decide how hot, cold, wet, or windy it might be!

Date:

Astronomy

Apr. 27, 2013 Rise Set
Actual Time 5:21 AM AKDT 11:57 PM AKDT
Civil Twilight 3:10 AM AKDT 2:05 AM AKDT
Nautical Twilight Sun does not rise Sun does not rise
Astronomical Twilight Sun does not rise Sun does not rise
Moon 3:41 AM AKDT (4/27) 4:34 AM AKDT (4/27)
Length of Visible Light 22h 54m
Length of Day
18h 36m
Waning Gibbous, 94% of the Moon is Illuminated
Apr 27
Waning Gibbous
May 2
Last Quarter
May 9
New
May 17
First Quarter
May 24
Full

Hourly Weather History & Observations

Time (AKDT) Temp. Windchill Dew Point Humidity Pressure Visibility Wind Dir Wind Speed Gust Speed Precip Events Conditions
12:53 AM 3.0 °F -8.0 °F -0.9 °F 84% 30.21 in 10.0 mi West 5.8 mph - N/A   Mostly Cloudy
1:53 AM 3.9 °F -6.9 °F -0.9 °F 80% 30.23 in 10.0 mi WNW 5.8 mph - N/A   Overcast
2:53 AM 3.0 °F -9.3 °F -0.9 °F 84% 30.24 in 10.0 mi West 6.9 mph - N/A   Overcast
3:53 AM 3.9 °F -6.9 °F -0.0 °F 84% 30.24 in 8.0 mi West 5.8 mph - 0.00 in Snow Light Snow
4:10 AM 3.2 °F -6.2 °F -0.4 °F 85% 30.24 in 6.0 mi WSW 4.6 mph - 0.00 in Snow Light Snow
4:53 AM 3.0 °F -9.3 °F -2.0 °F 80% 30.25 in 10.0 mi SW 6.9 mph - 0.00 in   Mostly Cloudy
5:53 AM 6.1 °F -4.3 °F 1.9 °F 83% 30.25 in 4.0 mi WSW 5.8 mph - 0.00 in Snow Light Snow
6:53 AM 8.1 °F -3.2 °F 3.0 °F 80% 30.25 in 3.0 mi WSW 6.9 mph - 0.00 in Snow Light Snow
7:09 AM 8.6 °F -4.7 °F 3.2 °F 79% 30.25 in 2.0 mi WSW 9.2 mph - 0.00 in Snow Light Snow
7:18 AM 8.6 °F -4.7 °F 3.2 °F 79% 30.25 in 5.0 mi WSW 9.2 mph - 0.00 in Snow Light Snow
7:53 AM 9.0 °F -5.1 °F 3.9 °F 80% 30.24 in 4.0 mi WSW 10.4 mph - 0.00 in Snow Light Snow
8:34 AM 10.4 °F -4.8 °F 5.0 °F 79% 30.23 in 1.8 mi WSW 12.7 mph - 0.00 in Snow Light Snow
8:48 AM 10.4 °F -3.3 °F 6.8 °F 85% 30.23 in 3.0 mi WSW 10.4 mph - 0.00 in Snow Light Snow
8:53 AM 10.0 °F -4.5 °F 6.1 °F 84% 30.24 in 3.0 mi WSW 11.5 mph - 0.00 in Snow Light Snow
9:02 AM 10.4 °F -4.1 °F 6.8 °F 85% 30.23 in 2.0 mi WSW 11.5 mph - 0.00 in Snow Light Snow
9:53 AM 10.9 °F -5.4 °F 7.0 °F 84% 30.24 in 2.0 mi WSW 15.0 mph - 0.00 in Snow Light Snow
10:08 AM 12.2 °F -3.7 °F 6.8 °F 79% 30.23 in 1.5 mi WSW 15.0 mph - 0.00 in Snow Light Snow
10:53 AM 12.0 °F -4.0 °F 7.0 °F 80% 30.22 in 2.5 mi WSW 15.0 mph - 0.00 in Snow Light Snow
11:01 AM 12.2 °F -3.7 °F 6.8 °F 79% 30.22 in 4.0 mi WSW 15.0 mph - 0.00 in Snow Light Snow
11:53 AM 14.0 °F -0.2 °F 9.0 °F 80% 30.23 in 8.0 mi West 12.7 mph - 0.00 in   Overcast
12:23 PM 15.8 °F 2.1 °F 10.4 °F 79% 30.22 in 8.0 mi West 12.7 mph - 0.00 in Snow Light Snow
12:53 PM 16.0 °F 2.3 °F 10.9 °F 81% 30.22 in 9.0 mi West 12.7 mph - 0.00 in   Overcast
1:53 PM 18.0 °F 4.8 °F 12.0 °F 78% 30.22 in 4.0 mi West 12.7 mph - 0.00 in Snow Light Snow
2:35 PM 17.6 °F 3.7 °F 12.2 °F 79% 30.21 in 4.0 mi WNW 13.8 mph - 0.00 in Snow Light Snow
2:53 PM 19.0 °F 5.0 °F 12.9 °F 77% 30.22 in 3.0 mi West 15.0 mph - 0.00 in Snow Light Snow
3:53 PM 19.0 °F 5.6 °F 14.0 °F 81% 30.22 in 6.0 mi WNW 13.8 mph - 0.00 in   Haze
4:53 PM 19.0 °F 5.0 °F 14.0 °F 81% 30.22 in 5.0 mi West 15.0 mph - N/A   Haze
5:53 PM 19.0 °F 5.0 °F 14.0 °F 81% 30.23 in 4.0 mi West 15.0 mph - N/A   Haze
6:53 PM 19.0 °F 5.0 °F 14.0 °F 81% 30.22 in 7.0 mi West 15.0 mph 21.9 mph N/A   Overcast
7:53 PM 19.0 °F 4.0 °F 14.0 °F 81% 30.23 in 6.0 mi West 17.3 mph - N/A   Haze
8:53 PM 19.0 °F 4.5 °F 15.1 °F 85% 30.22 in 7.0 mi West 16.1 mph - N/A   Overcast
9:53 PM 19.9 °F 5.7 °F 15.1 °F 81% 30.21 in 5.0 mi WNW 16.1 mph - N/A   Haze
10:53 PM 19.9 °F 5.2 °F 16.0 °F 85% 30.21 in 4.0 mi WNW 17.3 mph 25.3 mph N/A   Overcast
11:37 PM 19.4 °F 5.0 °F 15.8 °F 86% 30.20 in 2.5 mi WNW 16.1 mph 24.2 mph N/A   Overcast
11:53 PM 19.9 °F 4.3 °F 17.1 °F 89% 30.20 in 3.0 mi WNW 19.6 mph 25.3 mph N/A   Overcast